Time,TemperatureF,DewpointF,PressureIn,WindDirection,WindDirectionDegrees,WindSpeedMPH,WindSpeedGustMPH,Humidity,HourlyPrecipIn,Conditions,Clouds,dailyrainin,SoftwareType,DateUTC
2013-02-02 00:02:00,-2.0,-10.0,-100.00,WNW,285,2.0,6.0,70,-99.99,,,-99.99,,2013-02-02 06:02:00,
2013-02-02 00:12:00,-2.0,-10.0,-100.00,WNW,285,2.0,6.0,70,-99.99,,,-99.99,,2013-02-02 06:12:00,
2013-02-02 00:42:00,-2.0,-9.0,-100.00,WNW,290,1.0,2.0,73,-99.99,,,-99.99,,2013-02-02 06:42:00,
2013-02-02 00:52:00,-2.0,-9.0,-100.00,WNW,290,1.0,2.0,73,-99.99,,,-99.99,,2013-02-02 06:52:00,
2013-02-02 01:02:00,-2.0,-9.0,-100.00,WNW,290,1.0,2.0,73,-99.99,,,-99.99,,2013-02-02 07:02:00,
2013-02-02 01:11:00,-2.0,-9.0,-100.00,WNW,290,1.0,2.0,73,-99.99,,,-99.99,,2013-02-02 07:11:00,
2013-02-02 01:42:00,-2.0,-9.0,-100.00,WSW,255,2.0,3.0,75,-99.99,,,-99.99,,2013-02-02 07:42:00,
2013-02-02 01:52:00,-2.0,-9.0,-100.00,WSW,255,2.0,3.0,75,-99.99,,,-99.99,,2013-02-02 07:52:00,
2013-02-02 02:01:00,-2.0,-9.0,-100.00,WSW,255,2.0,3.0,75,-99.99,,,-99.99,,2013-02-02 08:01:00,
2013-02-02 02:11:00,-2.0,-9.0,-100.00,WSW,255,2.0,3.0,75,-99.99,,,-99.99,,2013-02-02 08:11:00,
2013-02-02 02:32:00,-2.0,-8.0,-100.00,North,-999,-999.0,-999.0,77,-99.99,,,-99.99,,2013-02-02 08:32:00,
2013-02-02 02:42:00,-2.0,-8.0,-100.00,WSW,240,2.0,3.0,77,-99.99,,,-99.99,,2013-02-02 08:42:00,
2013-02-02 02:53:00,-2.0,-8.0,-100.00,WSW,240,2.0,3.0,77,-99.99,,,-99.99,,2013-02-02 08:53:00,
2013-02-02 03:01:00,-2.0,-8.0,-100.00,WSW,240,2.0,3.0,77,-99.99,,,-99.99,,2013-02-02 09:01:00,
2013-02-02 03:11:00,-2.0,-8.0,-100.00,WSW,240,2.0,3.0,77,-99.99,,,-99.99,,2013-02-02 09:11:00,
2013-02-02 03:42:00,-2.0,-8.0,-100.00,WSW,245,2.0,4.0,78,-99.99,,,-99.99,,2013-02-02 09:42:00,
2013-02-02 03:52:00,-2.0,-8.0,-100.00,WSW,245,2.0,4.0,78,-99.99,,,-99.99,,2013-02-02 09:52:00,
2013-02-02 04:01:00,-2.0,-8.0,-100.00,WSW,245,2.0,4.0,78,-99.99,,,-99.99,,2013-02-02 10:01:00,
2013-02-02 04:11:00,-2.0,-8.0,-100.00,WSW,245,2.0,4.0,78,-99.99,,,-99.99,,2013-02-02 10:11:00,
2013-02-02 04:42:00,-3.0,-8.0,-100.00,West,270,2.0,4.0,79,-99.99,,,-99.99,,2013-02-02 10:42:00,
2013-02-02 04:52:00,-3.0,-8.0,-100.00,West,270,2.0,4.0,79,-99.99,,,-99.99,,2013-02-02 10:52:00,
2013-02-02 05:01:00,-3.0,-8.0,-100.00,West,270,2.0,4.0,79,-99.99,,,-99.99,,2013-02-02 11:01:00,
2013-02-02 05:11:00,-3.0,-8.0,-100.00,West,270,2.0,4.0,79,-99.99,,,-99.99,,2013-02-02 11:11:00,
2013-02-02 05:42:00,-5.0,-9.0,-100.00,West,265,2.0,4.0,83,-99.99,,,-99.99,,2013-02-02 11:42:00,
2013-02-02 05:52:00,-5.0,-9.0,-100.00,West,265,2.0,4.0,83,-99.99,,,-99.99,,2013-02-02 11:52:00,
2013-02-02 06:02:00,-5.0,-9.0,-100.00,West,265,2.0,4.0,83,-99.99,,,-99.99,,2013-02-02 12:02:00,
2013-02-02 06:11:00,-5.0,-9.0,-100.00,West,265,2.0,4.0,83,-99.99,,,-99.99,,2013-02-02 12:11:00,
2013-02-02 06:42:00,-7.0,-10.0,-100.00,West,280,1.0,3.0,85,-99.99,,,-99.99,,2013-02-02 12:42:00,
2013-02-02 06:52:00,-7.0,-10.0,-100.00,West,280,1.0,3.0,85,-99.99,,,-99.99,,2013-02-02 12:52:00,
2013-02-02 07:03:00,-7.0,-10.0,-100.00,West,280,1.0,3.0,85,-99.99,,,-99.99,,2013-02-02 13:03:00,
2013-02-02 07:11:00,-7.0,-10.0,-100.00,West,280,1.0,3.0,85,-99.99,,,-99.99,,2013-02-02 13:11:00,
2013-02-02 07:42:00,-10.0,-13.0,-100.00,WSW,245,2.0,5.0,85,-99.99,,,-99.99,,2013-02-02 13:42:00,
2013-02-02 07:52:00,-10.0,-13.0,-100.00,WSW,245,2.0,5.0,85,-99.99,,,-99.99,,2013-02-02 13:52:00,
2013-02-02 08:02:00,-10.0,-13.0,-100.00,WSW,245,2.0,5.0,85,-99.99,,,-99.99,,2013-02-02 14:02:00,
2013-02-02 08:11:00,-10.0,-13.0,-100.00,WSW,245,2.0,5.0,85,-99.99,,,-99.99,,2013-02-02 14:11:00,
2013-02-02 08:42:00,-7.0,-11.0,-100.00,WSW,245,2.0,2.0,83,-99.99,,,-99.99,,2013-02-02 14:42:00,
2013-02-02 08:52:00,-7.0,-11.0,-100.00,WSW,245,2.0,2.0,83,-99.99,,,-99.99,,2013-02-02 14:52:00,
2013-02-02 09:03:00,-7.0,-11.0,-100.00,WSW,245,2.0,2.0,83,-99.99,,,-99.99,,2013-02-02 15:03:00,
2013-02-02 09:12:00,-7.0,-11.0,-100.00,WSW,245,2.0,2.0,83,-99.99,,,-99.99,,2013-02-02 15:12:00,
2013-02-02 09:42:00,-2.0,-9.0,-100.00,SSW,205,2.0,4.0,73,-99.99,,,-99.99,,2013-02-02 15:42:00,
2013-02-02 09:52:00,-2.0,-9.0,-100.00,SSW,205,2.0,4.0,73,-99.99,,,-99.99,,2013-02-02 15:52:00,
2013-02-02 10:03:00,-2.0,-9.0,-100.00,SSW,205,2.0,4.0,73,-99.99,,,-99.99,,2013-02-02 16:03:00,
2013-02-02 10:11:00,-2.0,-9.0,-100.00,SSW,205,2.0,4.0,73,-99.99,,,-99.99,,2013-02-02 16:11:00,
2013-02-02 10:42:00,1.0,-8.0,-100.00,WNW,290,1.0,4.0,66,-99.99,,,-99.99,,2013-02-02 16:42:00,
2013-02-02 10:52:00,1.0,-8.0,-100.00,WNW,290,1.0,4.0,66,-99.99,,,-99.99,,2013-02-02 16:52:00,
2013-02-02 11:02:00,1.0,-8.0,-100.00,WNW,290,1.0,4.0,66,-99.99,,,-99.99,,2013-02-02 17:02:00,
2013-02-02 11:11:00,1.0,-8.0,-100.00,WNW,290,1.0,4.0,66,-99.99,,,-99.99,,2013-02-02 17:11:00,
2013-02-02 11:42:00,6.0,-5.0,-100.00,West,265,0.0,5.0,61,-99.99,,,-99.99,,2013-02-02 17:42:00,
2013-02-02 11:52:00,6.0,-5.0,-100.00,West,265,0.0,5.0,61,-99.99,,,-99.99,,2013-02-02 17:52:00,
2013-02-02 12:02:00,6.0,-5.0,-100.00,West,265,0.0,5.0,61,-99.99,,,-99.99,,2013-02-02 18:02:00,
2013-02-02 12:12:00,6.0,-5.0,-100.00,West,265,0.0,5.0,61,-99.99,,,-99.99,,2013-02-02 18:12:00,
2013-02-02 12:42:00,6.0,-5.0,-100.00,WSW,245,4.0,7.0,58,-99.99,,,-99.99,,2013-02-02 18:42:00,
2013-02-02 12:52:00,6.0,-5.0,-100.00,WSW,245,4.0,7.0,58,-99.99,,,-99.99,,2013-02-02 18:52:00,
2013-02-02 13:02:00,6.0,-5.0,-100.00,WSW,245,4.0,7.0,58,-99.99,,,-99.99,,2013-02-02 19:02:00,
2013-02-02 13:12:00,6.0,-5.0,-100.00,WSW,245,4.0,7.0,58,-99.99,,,-99.99,,2013-02-02 19:12:00,
2013-02-02 13:42:00,9.0,-5.0,-100.00,West,270,3.0,7.0,53,-99.99,,,-99.99,,2013-02-02 19:42:00,
2013-02-02 13:52:00,9.0,-5.0,-100.00,West,270,3.0,7.0,53,-99.99,,,-99.99,,2013-02-02 19:52:00,
2013-02-02 14:01:00,9.0,-5.0,-100.00,West,270,3.0,7.0,53,-99.99,,,-99.99,,2013-02-02 20:01:00,
2013-02-02 14:11:00,9.0,-5.0,-100.00,West,270,3.0,7.0,53,-99.99,,,-99.99,,2013-02-02 20:11:00,
2013-02-02 14:42:00,10.0,-5.0,-100.00,WSW,255,6.0,11.0,50,-99.99,,,-99.99,,2013-02-02 20:42:00,
2013-02-02 14:52:00,10.0,-5.0,-100.00,WSW,255,6.0,11.0,50,-99.99,,,-99.99,,2013-02-02 20:52:00,
2013-02-02 15:02:00,10.0,-5.0,-100.00,WSW,255,6.0,11.0,50,-99.99,,,-99.99,,2013-02-02 21:02:00,
2013-02-02 15:11:00,10.0,-5.0,-100.00,WSW,255,6.0,11.0,50,-99.99,,,-99.99,,2013-02-02 21:11:00,
2013-02-02 15:42:00,11.0,-5.0,-100.00,West,260,5.0,11.0,49,-99.99,,,-99.99,,2013-02-02 21:42:00,
2013-02-02 15:52:00,11.0,-5.0,-100.00,West,260,5.0,11.0,49,-99.99,,,-99.99,,2013-02-02 21:52:00,
2013-02-02 16:02:00,11.0,-5.0,-100.00,West,260,5.0,11.0,49,-99.99,,,-99.99,,2013-02-02 22:02:00,
2013-02-02 16:12:00,11.0,-5.0,-100.00,West,260,5.0,11.0,49,-99.99,,,-99.99,,2013-02-02 22:12:00,
2013-02-02 16:42:00,12.0,-4.0,-100.00,South,190,6.0,9.0,48,-99.99,,,-99.99,,2013-02-02 22:42:00,
2013-02-02 16:52:00,12.0,-4.0,-100.00,South,190,6.0,9.0,48,-99.99,,,-99.99,,2013-02-02 22:52:00,
2013-02-02 17:02:00,12.0,-4.0,-100.00,South,190,6.0,9.0,48,-99.99,,,-99.99,,2013-02-02 23:02:00,
2013-02-02 17:11:00,12.0,-4.0,-100.00,South,190,6.0,9.0,48,-99.99,,,-99.99,,2013-02-02 23:11:00,
2013-02-02 17:42:00,10.0,-5.0,-100.00,SW,220,6.0,9.0,50,-99.99,,,-99.99,,2013-02-02 23:42:00,
2013-02-02 17:52:00,10.0,-5.0,-100.00,SW,220,6.0,9.0,50,-99.99,,,-99.99,,2013-02-02 23:52:00,
2013-02-02 18:02:00,10.0,-5.0,-100.00,SW,220,6.0,9.0,50,-99.99,,,-99.99,,2013-02-03 00:02:00,
2013-02-02 18:11:00,10.0,-5.0,-100.00,SW,220,6.0,9.0,50,-99.99,,,-99.99,,2013-02-03 00:11:00,
2013-02-02 18:42:00,8.0,-6.0,-100.00,SSW,210,4.0,9.0,52,-99.99,,,-99.99,,2013-02-03 00:42:00,
2013-02-02 18:52:00,8.0,-6.0,-100.00,SSW,210,4.0,9.0,52,-99.99,,,-99.99,,2013-02-03 00:52:00,
2013-02-02 19:02:00,8.0,-6.0,-100.00,SSW,210,4.0,9.0,52,-99.99,,,-99.99,,2013-02-03 01:02:00,
2013-02-02 19:11:00,8.0,-6.0,-100.00,SSW,210,4.0,9.0,52,-99.99,,,-99.99,,2013-02-03 01:11:00,
2013-02-02 19:42:00,7.0,-6.0,-100.00,SSW,205,4.0,9.0,55,-99.99,,,-99.99,,2013-02-03 01:42:00,
2013-02-02 19:52:00,7.0,-6.0,-100.00,SSW,205,4.0,9.0,55,-99.99,,,-99.99,,2013-02-03 01:52:00,
2013-02-02 20:01:00,7.0,-6.0,-100.00,SSW,205,4.0,9.0,55,-99.99,,,-99.99,,2013-02-03 02:01:00,
2013-02-02 20:11:00,7.0,-6.0,-100.00,SSW,205,4.0,9.0,55,-99.99,,,-99.99,,2013-02-03 02:11:00,
2013-02-02 20:42:00,6.0,-6.0,-100.00,SW,220,6.0,9.0,58,-99.99,,,-99.99,,2013-02-03 02:42:00,
2013-02-02 20:52:00,6.0,-6.0,-100.00,SW,220,6.0,9.0,58,-99.99,,,-99.99,,2013-02-03 02:52:00,
2013-02-02 21:02:00,6.0,-6.0,-100.00,SW,220,6.0,9.0,58,-99.99,,,-99.99,,2013-02-03 03:02:00,
2013-02-02 21:11:00,6.0,-6.0,-100.00,SW,220,6.0,9.0,58,-99.99,,,-99.99,,2013-02-03 03:11:00,
2013-02-02 21:42:00,6.0,-4.0,-100.00,SW,235,7.0,11.0,63,-99.99,,,-99.99,,2013-02-03 03:42:00,
2013-02-02 21:52:00,6.0,-4.0,-100.00,SW,235,7.0,11.0,63,-99.99,,,-99.99,,2013-02-03 03:52:00,
2013-02-02 22:01:00,6.0,-4.0,-100.00,SW,235,7.0,11.0,63,-99.99,,,-99.99,,2013-02-03 04:01:00,
2013-02-02 22:11:00,6.0,-4.0,-100.00,SW,235,7.0,11.0,63,-99.99,,,-99.99,,2013-02-03 04:11:00,
2013-02-02 22:42:00,6.0,-2.0,-100.00,WSW,245,7.0,11.0,71,-99.99,,,-99.99,,2013-02-03 04:42:00,
2013-02-02 22:52:00,6.0,-2.0,-100.00,WSW,245,7.0,11.0,71,-99.99,,,-99.99,,2013-02-03 04:52:00,
2013-02-02 23:03:00,6.0,-2.0,-100.00,WSW,245,7.0,11.0,71,-99.99,,,-99.99,,2013-02-03 05:03:00,
2013-02-02 23:12:00,6.0,-2.0,-100.00,WSW,245,7.0,11.0,71,-99.99,,,-99.99,,2013-02-03 05:12:00,
2013-02-02 23:42:00,6.0,1.0,-100.00,SW,235,6.0,7.0,80,-99.99,,,-99.99,,2013-02-03 05:42:00,
2013-02-02 23:52:00,6.0,1.0,-100.00,SW,235,6.0,7.0,80,-99.99,,,-99.99,,2013-02-03 05:52:00,